Weather History for Crookston, MN

Change the Weather History Date:

Tuesday, August 21, 2012

  Actual Average Record
Temperature  
Mean Temperature 68 °F -  
Max Temperature 87 °F 76 °F 87 °F (2012)
Min Temperature 48 °F 52 °F 35 °F (2004)
Cooling Degree Days 2    
Growing Degree Days 18 (Base 50)    
Moisture  
Dew Point 51 °F    
Average Humidity 57    
Maximum Humidity 93    
Minimum Humidity 29    
Precipitation  
Precipitation 0.00 in - - ()
Sea Level Pressure  
Sea Level Pressure 29.94 in    
Wind  
Wind Speed 9 mph (SSW)    
Max Wind Speed 20 mph    
Max Gust Speed 26 mph    
Visibility 10 miles    
Events      
Averages and records for this station are not official NWS values.
T = Trace of Precipitation, MM = Missing Value Source: NWS Daily Summary

Daily Weather History Graph

Daily Weather History Graph

Search for Another Location

Airport:

Trip Planner

Search our weather history database for the weather conditions in past years. The results will help you decide how hot, cold, wet, or windy it might be!

Date:

Astronomy

Aug. 21, 2012 Rise Set
Actual Time 6:30 AM CDT 8:27 PM CDT
Civil Twilight 5:57 AM CDT 9:00 PM CDT
Nautical Twilight 5:16 AM CDT 9:41 PM CDT
Astronomical Twilight 4:30 AM CDT 10:26 PM CDT
Moon 11:28 AM CDT (8/21) 10:00 PM CDT (8/21)
Length of Visible Light 15h 03m
Length of Day
13h 56m
Waxing Crescent, 19% of the Moon is Illuminated
Aug 21
Waxing Crescent
Aug 24
First Quarter
Aug 31
Full
Sep 8
Last Quarter
Sep 15
New

Hourly Weather History & Observations

Time (CDT) Temp. Heat Index Dew Point Humidity Pressure Visibility Wind Dir Wind Speed Gust Speed Precip Events Conditions
12:14 AM 60.8 °F - 48.2 °F 63% 29.97 in 10.0 mi South 6.9 mph - N/A   Clear
12:34 AM 59.0 °F - 48.2 °F 67% 29.98 in 10.0 mi South 5.8 mph - N/A   Clear
1:14 AM 53.6 °F - 48.2 °F 82% 29.99 in 10.0 mi SSE 4.6 mph - N/A   Clear
1:34 AM 53.6 °F - 48.2 °F 82% 29.98 in 10.0 mi South 5.8 mph - N/A   Clear
1:55 AM 51.8 °F - 46.4 °F 82% 29.98 in 10.0 mi South 5.8 mph - N/A   Clear
2:14 AM 51.8 °F - 46.4 °F 82% 29.98 in 10.0 mi South 5.8 mph - N/A   Clear
2:35 AM 50.0 °F - 46.4 °F 87% 29.98 in 10.0 mi South 5.8 mph - N/A   Clear
2:55 AM 51.8 °F - 46.4 °F 82% 29.98 in 10.0 mi South 6.9 mph - N/A   Clear
3:14 AM 51.8 °F - 46.4 °F 82% 29.98 in 10.0 mi South 6.9 mph - N/A   Clear
3:35 AM 51.8 °F - 46.4 °F 82% 29.98 in 10.0 mi South 5.8 mph - N/A   Clear
3:55 AM 50.0 °F - 46.4 °F 87% 29.98 in 10.0 mi South 5.8 mph - N/A   Clear
4:14 AM 50.0 °F - 46.4 °F 87% 29.98 in 10.0 mi South 4.6 mph - N/A   Clear
4:35 AM 48.2 °F - 46.4 °F 93% 29.98 in 10.0 mi South 4.6 mph - N/A   Clear
4:55 AM 50.0 °F - 46.4 °F 87% 29.98 in 10.0 mi South 6.9 mph - N/A   Clear
5:14 AM 48.2 °F - 44.6 °F 87% 29.98 in 10.0 mi South 5.8 mph - N/A   Clear
5:35 AM 48.2 °F - 44.6 °F 87% 29.98 in 10.0 mi South 6.9 mph - N/A   Clear
5:55 AM 48.2 °F - 44.6 °F 87% 29.98 in 10.0 mi South 6.9 mph - N/A   Clear
6:14 AM 50.0 °F - 44.6 °F 82% 29.99 in 10.0 mi South 6.9 mph - N/A   Clear
6:35 AM 48.2 °F - 44.6 °F 87% 29.99 in 10.0 mi South 6.9 mph - N/A   Clear
6:55 AM 50.0 °F - 44.6 °F 82% 29.98 in 10.0 mi South 9.2 mph - N/A   Clear
7:14 AM 50.0 °F - 46.4 °F 87% 29.99 in 10.0 mi SSE 6.9 mph - N/A   Clear
7:35 AM 51.8 °F - 46.4 °F 82% 29.99 in 10.0 mi South 4.6 mph - N/A   Clear
7:55 AM 55.4 °F - 48.2 °F 77% 29.99 in 10.0 mi South 8.1 mph - N/A   Clear
8:14 AM 57.2 °F - 48.2 °F 72% 29.99 in 10.0 mi South 8.1 mph - N/A   Clear
8:35 AM 60.8 °F - 48.2 °F 63% 29.99 in 10.0 mi South 10.4 mph - N/A   Clear
8:54 AM 60.8 °F - 50.0 °F 68% 29.98 in 10.0 mi South 9.2 mph - N/A   Clear
9:14 AM 64.4 °F - 51.8 °F 64% 29.98 in 10.0 mi SSW 10.4 mph - N/A   Clear
9:35 AM 64.4 °F - 51.8 °F 64% 29.97 in 10.0 mi SSW 11.5 mph - N/A   Clear
9:54 AM 66.2 °F - 51.8 °F 60% 29.97 in 10.0 mi SSW 10.4 mph - N/A   Clear
10:14 AM 69.8 °F - 51.8 °F 53% 29.97 in 10.0 mi SW 10.4 mph - N/A   Clear
10:35 AM 71.6 °F - 53.6 °F 53% 29.97 in 10.0 mi SSW 11.5 mph - N/A   Clear
10:54 AM 73.4 °F - 53.6 °F 50% 29.96 in 10.0 mi SSW 10.4 mph - N/A   Clear
11:14 AM 75.2 °F - 51.8 °F 44% 29.96 in 10.0 mi SSW 13.8 mph - N/A   Clear
11:35 AM 75.2 °F - 51.8 °F 44% 29.96 in 10.0 mi SSW 13.8 mph - N/A   Clear
11:54 AM 77.0 °F - 51.8 °F 41% 29.95 in 10.0 mi SSW 16.1 mph 21.9 mph N/A   Clear
12:15 PM 78.8 °F - 53.6 °F 42% 29.95 in 10.0 mi SSW 17.3 mph 21.9 mph N/A   Clear
12:35 PM 78.8 °F - 53.6 °F 42% 29.94 in 10.0 mi SSW 16.1 mph - N/A   Clear
12:54 PM 80.6 °F 80.3 °F 53.6 °F 39% 29.94 in 10.0 mi SW 17.3 mph 23.0 mph N/A   Clear
1:15 PM 80.6 °F 80.3 °F 53.6 °F 39% 29.93 in 10.0 mi SW 17.3 mph 21.9 mph N/A   Clear
1:34 PM 82.4 °F 81.4 °F 53.6 °F 37% 29.93 in 10.0 mi SSW 13.8 mph - N/A   Clear
1:55 PM 84.2 °F 82.8 °F 53.6 °F 35% 29.92 in 10.0 mi SSW 12.7 mph 21.9 mph N/A   Clear
2:15 PM 84.2 °F 82.8 °F 53.6 °F 35% 29.91 in 10.0 mi SW 15.0 mph 26.5 mph N/A   Clear
2:34 PM 84.2 °F 82.8 °F 53.6 °F 35% 29.91 in 10.0 mi SW 15.0 mph 21.9 mph N/A   Clear
2:55 PM 86.0 °F - 51.8 °F 31% 29.90 in 10.0 mi SSW 18.4 mph 24.2 mph N/A   Clear
3:14 PM 86.0 °F - 51.8 °F 31% 29.90 in 10.0 mi SW 16.1 mph 24.2 mph N/A   Clear
3:34 PM 86.0 °F 84.2 °F 53.6 °F 33% 29.89 in 10.0 mi SSW 18.4 mph 23.0 mph N/A   Clear
3:55 PM 87.8 °F 85.7 °F 53.6 °F 31% 29.89 in 10.0 mi SW 15.0 mph 25.3 mph N/A   Clear
4:14 PM 87.8 °F - 51.8 °F 29% 29.88 in 10.0 mi SW 17.3 mph 24.2 mph N/A   Clear
4:55 PM 87.8 °F - 51.8 °F 29% 29.88 in 10.0 mi SW 17.3 mph - N/A   Clear
5:14 PM 87.8 °F - 51.8 °F 29% 29.88 in 10.0 mi SW 18.4 mph 26.5 mph N/A   Clear
5:34 PM 87.8 °F - 51.8 °F 29% 29.87 in 10.0 mi SW 19.6 mph 23.0 mph N/A   Clear
5:55 PM 86.0 °F - 51.8 °F 31% 29.87 in 10.0 mi WSW 18.4 mph 24.2 mph N/A   Clear
6:13 PM 86.0 °F - 51.8 °F 31% 29.87 in 10.0 mi SW 18.4 mph - N/A   Clear
6:34 PM 84.2 °F 82.8 °F 53.6 °F 35% 29.87 in 10.0 mi SW 17.3 mph 21.9 mph N/A   Unknown
6:54 PM 84.2 °F 82.8 °F 53.6 °F 35% 29.87 in 10.0 mi SSW 16.1 mph - N/A   Clear
7:15 PM 82.4 °F 81.4 °F 53.6 °F 37% 29.87 in 10.0 mi SSW 13.8 mph - N/A   Clear
7:34 PM 80.6 °F 80.3 °F 53.6 °F 39% 29.87 in 10.0 mi SSW 15.0 mph - N/A   Clear
7:54 PM 80.6 °F 80.3 °F 53.6 °F 39% 29.87 in 10.0 mi SSW 12.7 mph - N/A   Clear
8:15 PM 78.8 °F - 53.6 °F 42% 29.86 in 10.0 mi SSW 13.8 mph 18.4 mph N/A   Clear
8:34 PM 77.0 °F - 53.6 °F 44% 29.87 in 10.0 mi SSW 11.5 mph - N/A   Clear
8:54 PM 75.2 °F - 53.6 °F 47% 29.87 in 10.0 mi SSW 11.5 mph - N/A   Clear
9:15 PM 73.4 °F - 53.6 °F 50% 29.87 in 10.0 mi SSW 11.5 mph - N/A   Clear
9:34 PM 73.4 °F - 53.6 °F 50% 29.88 in 10.0 mi SSW 12.7 mph - N/A   Clear
9:55 PM 73.4 °F - 53.6 °F 50% 29.88 in 10.0 mi SSW 11.5 mph - N/A   Clear
10:14 PM 71.6 °F - 53.6 °F 53% 29.88 in 10.0 mi SSW 11.5 mph - N/A   Clear
10:34 PM 71.6 °F - 53.6 °F 53% 29.88 in 10.0 mi South 11.5 mph - N/A   Clear
11:15 PM 69.8 °F - 53.6 °F 56% 29.88 in 10.0 mi South 10.4 mph - N/A   Clear
11:55 PM 66.2 °F - 53.6 °F 64% 29.88 in 10.0 mi South 9.2 mph - N/A   Clear